TimeEST,TemperatureF,Dew PointF,Humidity,Sea Level PressureIn,VisibilityMPH,Wind Direction,Wind SpeedMPH,Gust SpeedMPH,PrecipitationIn,Events,Conditions,WindDirDegrees,DateUTC
12:15 AM,59.0,53.6,82,30.11,10.0,Calm,Calm,-,N/A,,Scattered Clouds,0,2008-01-01 05:15:00
12:35 AM,57.2,53.6,88,30.11,10.0,West,5.8,-,N/A,,Scattered Clouds,280,2008-01-01 05:35:00
12:55 AM,57.2,53.6,88,30.11,10.0,WNW,3.5,-,N/A,,Overcast,300,2008-01-01 05:55:00
1:15 AM,59.0,53.6,82,30.11,10.0,Calm,Calm,-,N/A,,Mostly Cloudy,0,2008-01-01 06:15:00
1:35 AM,59.0,53.6,82,30.10,10.0,Calm,Calm,-,N/A,,Mostly Cloudy,0,2008-01-01 06:35:00
1:55 AM,59.0,53.6,82,30.11,10.0,West,5.8,-,N/A,,Mostly Cloudy,260,2008-01-01 06:55:00
2:15 AM,59.0,53.6,82,30.10,10.0,West,4.6,-,N/A,,Mostly Cloudy,280,2008-01-01 07:15:00
2:35 AM,59.0,53.6,82,30.10,10.0,WNW,5.8,-,N/A,,Mostly Cloudy,290,2008-01-01 07:35:00
2:55 AM,59.0,53.6,82,30.10,10.0,West,3.5,-,N/A,,Overcast,260,2008-01-01 07:55:00
3:15 AM,59.0,53.6,82,30.10,10.0,Calm,Calm,-,N/A,,Mostly Cloudy,0,2008-01-01 08:15:00
3:35 AM,57.2,53.6,88,30.10,10.0,West,5.8,-,N/A,,Scattered Clouds,280,2008-01-01 08:35:00
3:55 AM,59.0,55.4,88,30.09,10.0,West,4.6,-,N/A,,Mostly Cloudy,260,2008-01-01 08:55:00
4:15 AM,57.2,53.6,88,30.09,10.0,West,4.6,-,N/A,,Partly Cloudy,280,2008-01-01 09:15:00
4:35 AM,57.2,55.4,94,30.09,10.0,West,4.6,-,N/A,,Clear,280,2008-01-01 09:35:00
4:55 AM,57.2,53.6,88,30.10,10.0,West,5.8,-,N/A,,Clear,270,2008-01-01 09:55:00
5:15 AM,57.2,53.6,88,30.10,10.0,West,6.9,-,N/A,,Clear,270,2008-01-01 10:15:00
5:35 AM,57.2,53.6,88,30.10,10.0,West,6.9,-,N/A,,Clear,260,2008-01-01 10:35:00
5:55 AM,57.2,53.6,88,30.10,10.0,West,5.8,-,N/A,,Clear,260,2008-01-01 10:55:00
6:15 AM,57.2,53.6,88,30.10,10.0,West,5.8,-,N/A,,Clear,280,2008-01-01 11:15:00
6:35 AM,57.2,53.6,88,30.12,10.0,West,5.8,-,N/A,,Partly Cloudy,260,2008-01-01 11:35:00
6:50 AM,57.2,53.6,88,30.12,10.0,West,6.9,-,N/A,,Partly Cloudy,270,2008-01-01 11:50:00
7:50 AM,57.2,53.6,88,30.14,10.0,NW,6.9,-,N/A,,Mostly Cloudy,310,2008-01-01 12:50:00
8:50 AM,57.2,53.6,88,30.17,10.0,WNW,6.9,-,N/A,,Clear,300,2008-01-01 13:50:00
9:50 AM,62.6,48.2,59,30.18,10.0,NW,9.2,-,N/A,,Clear,320,2008-01-01 14:50:00
10:36 AM,64.4,44.6,49,30.18,10.0,WNW,13.8,-,N/A,,Clear,290,2008-01-01 15:36:00
10:55 AM,66.2,44.6,46,30.18,10.0,NW,11.5,17.3,N/A,,Clear,310,2008-01-01 15:55:00
11:46 AM,66.2,41.0,40,30.17,10.0,WNW,12.7,-,N/A,,Clear,290,2008-01-01 16:46:00
12:55 PM,69.8,42.8,38,30.14,10.0,NW,16.1,-,N/A,,Clear,310,2008-01-01 17:55:00
1:50 PM,69.8,42.8,38,30.13,10.0,NW,15.0,24.2,N/A,,Clear,310,2008-01-01 18:50:00
2:50 PM,68.0,42.8,40,30.13,10.0,NW,16.1,23.0,N/A,,Clear,320,2008-01-01 19:50:00
3:50 PM,66.2,37.4,35,30.14,10.0,North,-9999.0,-,N/A,,Clear,0,2008-01-01 20:50:00
4:54 PM,62.6,37.4,39,30.15,10.0,NW,10.4,17.3,N/A,,Clear,310,2008-01-01 21:54:00
5:50 PM,57.2,30.2,36,30.18,10.0,NW,9.2,-,N/A,,Clear,310,2008-01-01 22:50:00
6:50 PM,55.4,19.4,25,30.21,10.0,NW,17.3,25.3,N/A,,Clear,310,2008-01-01 23:50:00
7:50 PM,51.8,21.2,30,30.25,10.0,NW,12.7,23.0,N/A,,Clear,320,2008-01-02 00:50:00
8:55 PM,48.2,23.0,37,30.28,10.0,NW,10.4,-,N/A,,Clear,320,2008-01-02 01:55:00
9:15 PM,48.2,24.8,40,30.29,10.0,NW,8.1,-,N/A,,Clear,320,2008-01-02 02:15:00
9:35 PM,48.2,24.8,40,30.29,10.0,NW,10.4,-,N/A,,Clear,320,2008-01-02 02:35:00
9:55 PM,46.4,24.8,43,30.29,10.0,NW,10.4,-,N/A,,Clear,320,2008-01-02 02:55:00
10:15 PM,46.4,23.0,40,30.30,10.0,NW,11.5,18.4,N/A,,Clear,320,2008-01-02 03:15:00
10:35 PM,46.4,23.0,40,30.30,10.0,NW,8.1,-,N/A,,Clear,310,2008-01-02 03:35:00
10:55 PM,46.4,23.0,40,30.30,10.0,NW,6.9,-,N/A,,Clear,310,2008-01-02 03:55:00
11:15 PM,44.6,23.0,43,30.31,10.0,NW,8.1,-,N/A,,Clear,310,2008-01-02 04:15:00
11:35 PM,44.6,21.2,39,30.31,10.0,NW,8.1,-,N/A,,Clear,310,2008-01-02 04:35:00
11:55 PM,44.6,21.2,39,30.30,10.0,NW,6.9,-,N/A,,Clear,310,2008-01-02 04:55:00